Location: Mahannah Oil Field
(37.4664°N, 96.6003°W)
Time: 01:22:55
(UTC+00:00)

A-11 Canister half - Pass Details

Date: 25 January 2021
Orbit: 1524 x 1684 km, 47.3° (Epoch: 25 February)

Event Time Altitude Azimuth Distance (km) Brightness Sun altitude
Rises 17:52:01 0° 183° (S) 4,662 12.5 32.7°
Reaches altitude 10° 17:56:07 10° 168° (SSE) 3,679 12.5 32.9°
Maximum altitude 18:02:17 20° 125° (SE) 2,971 11.4 33.1°
Drops below altitude 10° 18:08:28 10° 83° (E) 3,711 11.1 33.3°
Sets 18:12:35 0° 68° (ENE) 4,716 11.4 33.4°
